DW5212 Weather Reports


time (UTC)temp
F
wind
direction
speed
knots
gust
knots
rain 1hr
in
rain 24hr
in
rain mn
in
humidity
%
barometer
mb
20260505040507 66 183 0.9 4.3 0.00 0.00 0.00 77 1012.2
20260505040008 67 266 0.9 4.3 0.00 0.00 0.00 76 1012.1
20260505035507 67 255 0.9 2.6 0.00 0.00 0.00 76 1012.0
20260505034507 67 213 1.7 4.3 0.00 0.00 0.00 76 1012.1
20260505034009 67 230 0.9 4.3 0.00 0.00 0.00 76 1012.0
20260505033507 67 205 0.9 6.1 0.00 0.00 0.00 76 1011.9
20260505033008 67 207 0.9 6.1 0.00 0.00 0.00 75 1011.8
20260505032008 67 203 0.9 5.2 0.00 0.00 0.00 75 1011.7
20260505031507 67 223 0.9 4.3 0.00 0.00 0.00 74 1011.8
20260505030011 68 134 0.9 4.3 0.00 0.00 0.00 73 1011.8
20260505024509 68 176 0.9 5.2 0.00 0.00 0.00 72 1011.5
20260505024009 68 200 0.9 5.2 0.00 0.00 0.00 72 1011.6
20260505023508 68 226 0.9 3.5 0.00 0.00 0.00 72 1011.5
20260505023009 68 195 0.9 3.5 0.00 0.00 0.00 72 1011.4
20260505022507 68 253 0.0 2.6 0.00 0.00 0.00 72 1011.4
20260505022009 68 132 0.9 3.5 0.00 0.00 0.00 71 1011.2
20260505021009 68 171 0.9 7.0 0.00 0.00 0.00 71 1011.1
20260505020508 69 203 0.9 7.0 0.00 0.00 0.00 71 1011.1
20260505020011 69 78 0.0 2.6 0.00 0.00 0.00 71 1011.0
20260505015507 69 220 0.0 2.6 0.00 0.00 0.00 71 1011.1
20260505015008 69 214 0.0 2.6 0.00 0.00 0.00 71 1011.0
20260505014508 69 71 0.0 2.6 0.00 0.00 0.00 70 1011.0
20260505014007 69 98 0.0 1.7 0.00 0.00 0.00 69 1011.1
20260505013507 70 72 0.0 1.7 0.00 0.00 0.00 69 1011.0
20260505012508 70 288 0.0 1.7 0.00 0.00 0.00 69 1011.0
20260505012008 71 288 0.0 2.6 0.00 0.00 0.00 68 1011.0
20260505011509 71 211 0.9 2.6 0.00 0.00 0.00 67 1011.0
20260505011009 71 197 0.0 3.5 0.00 0.00 0.00 66 1011.1
20260505010506 71 12 0.9 3.5 0.00 0.00 0.00 66 1011.1
20260505010011 71 169 0.9 6.1 0.00 0.00 0.00 65 1011.1
20260505005006 72 225 1.7 7.0 0.00 0.00 0.00 65 1011.1
20260505004506 72 159 1.7 6.1 0.00 0.00 0.00 64 1011.3
20260505004008 72 216 0.9 4.3 0.00 0.00 0.00 64 1011.1
20260505003013 73 162 0.9 6.1 0.00 0.00 0.00 63 1011.1
20260505002506 73 234 1.7 6.1 0.00 0.00 0.00 62 1011.1
20260505002011 73 230 0.9 5.2 0.00 0.00 0.00 62 1011.1
20260505001508 73 204 0.9 4.3 0.00 0.00 0.00 62 1011.0
20260505001008 74 231 0.9 4.3 0.00 0.00 0.00 61 1011.1
20260505000506 74 46 0.9 7.0 0.00 0.00 0.00 61 1011.0
20260505000008 74 192 0.9 7.0 0.00 0.00 0.00 60 1011.0
20260504235507 74 248 0.9 3.5 0.00 0.00 0.00 60 1011.2
20260504235006 75 256 0.9 3.5 0.00 0.00 0.00 60 1011.3
20260504234507 75 126 0.9 3.5 0.00 0.00 0.00 60 1011.2
20260504233507 75 129 1.7 5.2 0.00 0.00 0.00 59 1011.4
20260504233009 75 193 2.6 6.1 0.00 0.00 0.00 58 1011.7
20260504232506 75 186 2.6 7.0 0.00 0.00 0.00 57 1011.5
20260504231507 75 181 2.6 6.1 0.00 0.00 0.00 57 1011.6
20260504230508 76 215 1.7 6.1 0.00 0.00 0.00 56 1011.8
20260504230009 76 243 1.7 6.1 0.00 0.00 0.00 56 1011.8
20260504225506 76 309 1.7 7.0 0.00 0.00 0.00 55 1011.8
20260504224509 76 194 2.6 8.7 0.00 0.00 0.00 53 1011.8
20260504223507 77 209 2.6 7.8 0.00 0.00 0.00 53 1011.9
20260504223010 77 171 1.7 3.5 0.00 0.00 0.00 54 1011.9
20260504222507 77 174 1.7 7.8 0.00 0.00 0.00 54 1011.9
20260504222009 77 159 2.6 7.8 0.00 0.00 0.00 53 1011.9
20260504221506 77 167 2.6 7.0 0.00 0.00 0.00 53 1012.0
20260504221008 77 210 1.7 7.8 0.00 0.00 0.00 53 1012.0
20260504220507 77 149 1.7 7.0 0.00 0.00 0.00 53 1012.1
20260504220010 77 240 1.7 7.0 0.00 0.00 0.00 53 1012.2
20260504215507 77 190 0.9 7.0 0.00 0.00 0.00 53 1012.4
20260504215008 77 5 1.7 9.6 0.00 0.00 0.00 52 1012.4
20260504214507 77 248 2.6 11.3 0.00 0.00 0.00 51 1012.4
20260504214009 78 224 2.6 11.3 0.00 0.00 0.00 50 1012.4
20260504213507 78 190 1.7 8.7 0.00 0.00 0.00 51 1012.6
20260504213009 78 255 2.6 7.0 0.00 0.00 0.00 51 1012.5
20260504212507 78 279 2.6 7.8 0.00 0.00 0.00 50 1012.6
20260504212007 79 175 2.6 10.4 0.00 0.00 0.00 50 1012.7
20260504211507 79 143 2.6 10.4 0.00 0.00 0.00 49 1012.6
20260504211009 79 92 2.6 7.8 0.00 0.00 0.00 49 1012.8
20260504210008 79 250 3.5 11.3 0.00 0.00 0.00 48 1012.9
20260504205506 79 209 3.5 11.3 0.00 0.00 0.00 50 1013.0
20260504205007 79 228 1.7 7.8 0.00 0.00 0.00 48 1013.1
20260504204506 79 214 1.7 7.0 0.00 0.00 0.00 50 1013.3
20260504204007 79 164 2.6 7.8 0.00 0.00 0.00 50 1013.2
20260504203506 79 217 3.5 9.6 0.00 0.00 0.00 48 1013.3
20260504203008 79 264 3.5 9.6 0.00 0.00 0.00 49 1013.5
20260504202505 79 107 3.5 8.7 0.00 0.00 0.00 48 1013.4
20260504201506 79 242 2.6 9.6 0.00 0.00 0.00 48 1013.7
20260504201006 80 175 2.6 9.6 0.00 0.00 0.00 49 1013.8
20260504200506 79 322 2.6 7.0 0.00 0.00 0.00 48 1013.8
20260504200009 79 244 3.5 10.4 0.00 0.00 0.00 48 1014.0
20260504195506 79 213 3.5 10.4 0.00 0.00 0.00 47 1014.1
20260504195007 79 300 2.6 9.6 0.00 0.00 0.00 49 1014.2
20260504194507 80 207 1.7 8.7 0.00 0.00 0.00 47 1014.3
20260504194008 80 194 1.7 7.0 0.00 0.00 0.00 49 1014.2
20260504193505 80 83 2.6 7.8 0.00 0.00 0.00 48 1014.5
20260504193007 80 150 3.5 7.8 0.00 0.00 0.00 47 1014.5
20260504192507 80 144 2.6 7.8 0.00 0.00 0.00 48 1014.5
20260504192006 80 227 2.6 10.4 0.00 0.00 0.00 47 1014.5
20260504191008 79 171 2.6 7.0 0.00 0.00 0.00 46 1014.6
20260504190507 80 157 2.6 8.7 0.00 0.00 0.00 49 1015.0
20260504190011 79 174 2.6 8.7 0.00 0.00 0.00 48 1015.2
20260504185008 79 18 2.6 7.8 0.00 0.00 0.00 46 1015.4
20260504184508 79 170 1.7 6.1 0.00 0.00 0.00 44 1015.5
20260504183507 79 139 2.6 8.7 0.00 0.00 0.00 47 1015.6
20260504183009 79 257 2.6 8.7 0.00 0.00 0.00 44 1015.7
20260504182509 79 219 2.6 8.7 0.00 0.00 0.00 46 1015.7
20260504181507 78 180 2.6 10.4 0.00 0.00 0.00 43 1015.9
20260504180508 78 69 1.7 7.0 0.00 0.00 0.00 47 1015.8
20260504180012 78 237 2.6 9.6 0.00 0.00 0.00 47 1015.9
20260504175506 78 304 2.6 9.6 0.00 0.00 0.00 44 1015.9
20260504175008 78 321 2.6 7.0 0.00 0.00 0.00 46 1015.9
20260504174506 78 188 3.5 10.4 0.00 0.00 0.00 46 1016.1
20260504174006 78 265 2.6 10.4 0.00 0.00 0.00 46 1016.1
20260504173507 78 248 2.6 8.7 0.00 0.00 0.00 46 1016.0
20260504173007 78 319 3.5 9.6 0.00 0.00 0.00 46 1016.3
20260504172506 77 217 2.6 9.6 0.00 0.00 0.00 46 1016.4
20260504172008 77 226 3.5 9.6 0.00 0.00 0.00 48 1016.5
20260504171506 77 269 4.3 11.3 0.00 0.00 0.00 46 1016.6
20260504170507 77 311 3.5 8.7 0.00 0.00 0.00 47 1016.7
20260504151007 72 167 3.5 8.7 0.00 0.00 0.00 61 1017.1
20260504150506 71 155 2.6 7.8 0.00 0.00 0.00 63 1017.3
20260504141006 61 170 1.7 4.3 0.00 0.00 0.00 84 1017.4
20260504140507 60 237 0.9 4.3 0.00 0.00 0.00 85 1017.6
20260504130506 53 180 0.0 1.7 0.00 0.00 0.00 92 1017.0
20260504110505 51 195 0.0 0.0 0.00 0.00 0.00 89 1017.0
20260504100506 53 195 0.0 0.0 0.00 0.00 0.00 88 1016.8
20260504082006 54 195 0.0 0.0 0.00 0.00 0.00 87 1017.2
20260504081505 54 195 0.0 0.0 0.00 0.00 0.00 87 1017.2
20260504081006 54 195 0.0 0.0 0.00 0.00 0.00 86 1017.2
20260504080505 55 195 0.0 0.0 0.00 0.00 0.00 86 1017.3
20260504050506 58 195 0.0 0.0 0.00 0.00 0.00 84 1018.4
20260504050013 58 195 0.0 0.0 0.00 0.00 0.00 83 1018.4
20260504045506 58 195 0.0 0.0 0.00 0.00 0.00 83 1018.4
20260504043507 59 195 0.0 0.0 0.00 0.00 0.00 83 1018.4
20260504041507 59 195 0.0 0.0 0.00 0.00 0.00 83 1018.5
20260504041008 59 195 0.0 0.0 0.00 0.00 0.00 83 1018.6